Weather History for Courtland, AL

Change the Weather History Date:

Wednesday, January 16, 2013

  Actual Average (KMSL) Record (KMSL)
Temperature  
Mean Temperature 36 °F 41 °F  
Max Temperature 37 °F 50 °F 80 °F (1932)
Min Temperature 35 °F 31 °F 3 °F (1977)
Degree Days  
Heating Degree Days 29 24  
Month to date heating degree days 384  
Since 1 July heating degree days 1620  
Cooling Degree Days 0 0  
Month to date cooling degree days 0  
Year to date cooling degree days 0  
Moisture  
Dew Point 36 °F    
Average Humidity 99    
Maximum Humidity 100    
Minimum Humidity 93    
Precipitation  
Precipitation 0.00 in 0.14 in 1.30 in (1924)
Month to date precipitation 2.34  
Year to date precipitation 2.34  
Snow  
Snow 0.00 in - - ()
Month to date snowfall  
Since 1 July snowfall  
Snow Depth -    
Sea Level Pressure  
Sea Level Pressure 30.08 in    
Wind  
Wind Speed 6 mph (North)    
Max Wind Speed 12 mph    
Max Gust Speed -    
Visibility 7 miles    
Events Rain    
T = Trace of Precipitation, MM = Missing Value Source: NWS Daily Summary

Daily Weather History Graph

Daily Weather History Graph

Search for Another Location

Airport:

Trip Planner

Search our weather history database for the weather conditions in past years. The results will help you decide how hot, cold, wet, or windy it might be!

Date:

Astronomy

Jan. 16, 2013 Rise Set
Actual Time 6:55 AM CST 5:03 PM CST
Civil Twilight 6:28 AM CST 5:30 PM CST
Nautical Twilight 5:57 AM CST 6:01 PM CST
Astronomical Twilight 5:27 AM CST 6:31 PM CST
Moon 9:47 AM CST (1/16) 10:37 PM CST (1/16)
Length of Visible Light 11h 01m
Length of Day
10h 07m
Waxing Crescent, 28% of the Moon is Illuminated
Jan 16
Waxing Crescent
Jan 18
First Quarter
Jan 26
Full
Feb 3
Last Quarter
Feb 10
New

Hourly Weather History & Observations

Time (CST) Temp. Windchill Dew Point Humidity Pressure Visibility Wind Dir Wind Speed Gust Speed Precip Events Conditions
12:15 AM 35.6 °F 30.7 °F 35.6 °F 100% 30.02 in 2.5 mi NNW 5.8 mph - N/A Rain Rain
12:35 AM 35.6 °F 30.7 °F 35.6 °F 100% 30.01 in 4.0 mi NNW 5.8 mph - N/A Rain Rain
12:55 AM 35.6 °F 29.2 °F 35.6 °F 100% 30.03 in 7.0 mi NW 8.1 mph - N/A Rain Rain
1:15 AM 35.6 °F 30.7 °F 35.6 °F 100% 30.03 in 5.0 mi NNW 5.8 mph - N/A Rain Light Rain
1:35 AM 35.6 °F 31.7 °F 35.6 °F 100% 30.03 in 7.0 mi NNW 4.6 mph - N/A Rain Rain
1:55 AM 35.6 °F 29.2 °F 35.6 °F 100% 30.03 in 5.0 mi NNW 8.1 mph - N/A Rain Rain
2:35 AM 35.6 °F 29.2 °F 35.6 °F 100% 30.05 in 5.0 mi NW 8.1 mph - N/A Rain Rain
2:55 AM 35.6 °F 28.0 °F 35.6 °F 100% 30.05 in 4.0 mi North 10.4 mph - N/A Rain Rain
3:15 AM 35.6 °F 29.9 °F 35.6 °F 100% 30.05 in 4.0 mi NNW 6.9 mph - N/A Rain Rain
3:35 AM 35.6 °F 32.8 °F 35.6 °F 100% 30.04 in 10.0 mi NNE 3.5 mph - N/A Rain Light Rain
3:55 AM 35.6 °F - 35.6 °F 100% 30.04 in 4.0 mi Calm Calm - N/A Rain Rain
4:15 AM 35.6 °F 29.9 °F 35.6 °F 100% 30.03 in 7.0 mi North 6.9 mph - N/A Rain Rain
4:35 AM 35.6 °F 32.8 °F 35.6 °F 100% 30.01 in 10.0 mi NE 3.5 mph - N/A   Light Drizzle
4:55 AM 35.6 °F - 35.6 °F 100% 30.05 in 7.0 mi Calm Calm - N/A Rain Rain
5:35 AM 35.6 °F 29.9 °F 35.6 °F 100% 30.04 in 10.0 mi NNW 6.9 mph - N/A Rain Light Rain
5:55 AM 35.6 °F 30.7 °F 35.6 °F 100% 30.04 in 10.0 mi NW 5.8 mph - N/A Rain Light Rain
6:35 AM 35.6 °F 30.7 °F 35.6 °F 100% 30.05 in 10.0 mi NNW 5.8 mph - N/A   Overcast
6:55 AM 35.6 °F 28.6 °F 35.6 °F 100% 30.08 in 10.0 mi NW 9.2 mph - N/A Rain Light Rain
7:15 AM 35.6 °F 29.9 °F 35.6 °F 100% 30.10 in 10.0 mi NW 6.9 mph - N/A Rain Rain
7:35 AM 35.6 °F 32.8 °F 35.6 °F 100% 30.09 in 10.0 mi North 3.5 mph - N/A Rain Light Rain
7:55 AM 35.6 °F 29.9 °F 35.6 °F 100% 30.09 in 10.0 mi North 6.9 mph - N/A Rain Rain
8:15 AM 35.6 °F 30.7 °F 35.6 °F 100% 30.10 in 10.0 mi North 5.8 mph - N/A   Light Drizzle
8:35 AM 35.6 °F 29.2 °F 35.6 °F 100% 30.10 in 10.0 mi North 8.1 mph - N/A   Overcast
8:55 AM 35.6 °F 29.9 °F 35.6 °F 100% 30.10 in 10.0 mi North 6.9 mph - N/A   Overcast
9:15 AM 35.6 °F 31.7 °F 35.6 °F 100% 30.10 in 10.0 mi North 4.6 mph - N/A Rain Light Rain
9:35 AM 35.6 °F 32.8 °F 35.6 °F 100% 30.11 in 10.0 mi North 3.5 mph - N/A Rain Rain
9:55 AM 35.6 °F 31.7 °F 35.6 °F 100% 30.11 in 10.0 mi North 4.6 mph - N/A Rain Light Rain
10:15 AM 35.6 °F 32.8 °F 35.6 °F 100% 30.11 in 10.0 mi North 3.5 mph - N/A Rain Light Rain
10:35 AM 35.6 °F 31.7 °F 35.6 °F 100% 30.10 in 10.0 mi NNW 4.6 mph - N/A Rain Light Rain
10:55 AM 35.6 °F 28.0 °F 35.6 °F 100% 30.11 in 7.0 mi NNW 10.4 mph - N/A Rain Rain
11:15 AM 35.6 °F 27.5 °F 35.6 °F 100% 30.12 in 7.0 mi NNW 11.5 mph - N/A   Light Drizzle
11:35 AM 35.6 °F 29.2 °F 35.6 °F 100% 30.10 in 4.0 mi NNW 8.1 mph - N/A Rain Rain
11:55 AM 35.6 °F 28.0 °F 35.6 °F 100% 30.09 in 7.0 mi NNW 10.4 mph - N/A Rain Light Rain
12:15 PM 35.6 °F 28.0 °F 35.6 °F 100% 30.10 in 5.0 mi NNW 10.4 mph - N/A Rain Light Rain
12:55 PM 35.6 °F 28.0 °F 35.6 °F 100% 30.10 in 7.0 mi North 10.4 mph - N/A   Light Drizzle
1:15 PM 35.6 °F 30.7 °F 33.8 °F 93% 30.09 in 10.0 mi NNE 5.8 mph - N/A Rain Light Rain
1:35 PM 35.6 °F 30.7 °F 35.6 °F 100% 30.08 in 7.0 mi NNE 5.8 mph - N/A   Overcast
1:55 PM 35.6 °F 30.7 °F 35.6 °F 100% 30.08 in 7.0 mi North 5.8 mph - N/A   Overcast
2:15 PM 35.6 °F 29.9 °F 33.8 °F 93% 30.08 in 10.0 mi North 6.9 mph - N/A Rain Light Rain
2:35 PM 35.6 °F 31.7 °F 35.6 °F 100% 30.08 in 5.0 mi ENE 4.6 mph - N/A Rain Light Rain
2:55 PM 35.6 °F 31.7 °F 35.6 °F 100% 30.08 in 5.0 mi NE 4.6 mph - N/A Rain Rain
3:15 PM 35.6 °F 31.7 °F 35.6 °F 100% 30.08 in 7.0 mi NE 4.6 mph - N/A Rain Light Rain
3:35 PM 35.6 °F 31.7 °F 35.6 °F 100% 30.08 in 7.0 mi NNE 4.6 mph - N/A Rain Light Rain
3:55 PM 35.6 °F 29.2 °F 35.6 °F 100% 30.08 in 7.0 mi North 8.1 mph - N/A Rain Rain
4:15 PM 35.6 °F 32.8 °F 35.6 °F 100% 30.08 in 7.0 mi North 3.5 mph - N/A   Overcast
4:35 PM 35.6 °F 32.8 °F 35.6 °F 100% 30.09 in 7.0 mi NNE 3.5 mph - N/A   Light Drizzle
4:55 PM 37.4 °F 33.8 °F 35.6 °F 93% 30.09 in 5.0 mi North 4.6 mph - N/A   Drizzle
5:15 PM 35.6 °F 32.8 °F 35.6 °F 100% 30.09 in 5.0 mi North 3.5 mph - N/A Rain Light Rain
5:35 PM 35.6 °F - 35.6 °F 100% 30.10 in 7.0 mi Calm Calm - N/A Rain Light Rain
5:55 PM 37.4 °F 33.8 °F 35.6 °F 93% 30.09 in 5.0 mi NNE 4.6 mph - N/A   Drizzle
6:15 PM 37.4 °F - 35.6 °F 93% 30.09 in 7.0 mi Calm Calm - N/A   Light Drizzle
6:35 PM 37.4 °F 33.8 °F 37.4 °F 100% 30.09 in 7.0 mi North 4.6 mph - N/A Rain Light Rain
6:55 PM 37.4 °F - 37.4 °F 100% 30.09 in 7.0 mi Calm Calm - N/A   Overcast
7:15 PM 37.4 °F 34.9 °F 37.4 °F 100% 30.09 in 5.0 mi NNE 3.5 mph - N/A Rain Light Rain
7:35 PM 37.4 °F 34.9 °F 37.4 °F 100% 30.07 in 5.0 mi NNE 3.5 mph - N/A Rain Rain
7:55 PM 37.4 °F 31.4 °F 37.4 °F 100% 30.08 in 5.0 mi North 8.1 mph - N/A   Overcast
8:15 PM 37.4 °F 32.8 °F 37.4 °F 100% 30.10 in 5.0 mi North 5.8 mph - N/A Rain Light Rain
8:55 PM 37.4 °F 33.8 °F 37.4 °F 100% 30.10 in 5.0 mi NNE 4.6 mph - N/A Rain Rain
9:15 PM 37.4 °F 32.8 °F 37.4 °F 100% 30.08 in 4.0 mi NNE 5.8 mph - N/A Rain Light Rain
9:35 PM 37.4 °F 32.8 °F 37.4 °F 100% 30.10 in 5.0 mi NNW 5.8 mph - N/A   Light Drizzle
9:55 PM 37.4 °F 30.8 °F 37.4 °F 100% 30.10 in 4.0 mi NNW 9.2 mph - N/A   Overcast
10:15 PM 37.4 °F 31.4 °F 37.4 °F 100% 30.09 in 5.0 mi North 8.1 mph - N/A   Light Drizzle
10:35 PM 37.4 °F 32.1 °F 37.4 °F 100% 30.09 in 5.0 mi North 6.9 mph - N/A   Overcast
10:55 PM 37.4 °F 30.8 °F 37.4 °F 100% 30.09 in 4.0 mi North 9.2 mph - N/A Rain Light Rain
11:15 PM 37.4 °F 30.8 °F 37.4 °F 100% 30.08 in 4.0 mi North 9.2 mph - N/A Rain Light Rain
11:35 PM 37.4 °F 30.8 °F 37.4 °F 100% 30.08 in 5.0 mi North 9.2 mph - N/A   Light Drizzle
11:55 PM 37.4 °F 30.3 °F 37.4 °F 100% 30.07 in 5.0 mi North 10.4 mph - N/A   Overcast